Weather History for Togiak, AK

Change the Weather History Date:

Friday, September 5, 2014

  Actual Average Record
Temperature  
Mean Temperature 56 °F -  
Max Temperature 60 °F 53 °F 64 °F (2011)
Min Temperature 48 °F 41 °F 41 °F (1998)
Degree Days  
Heating Degree Days 10    
Growing Degree Days 6 (Base 50)    
Moisture  
Dew Point 53 °F    
Average Humidity 89    
Maximum Humidity 100    
Minimum Humidity 77    
Precipitation  
Precipitation 0.01 in - - ()
Sea Level Pressure  
Sea Level Pressure 29.78 in    
Wind  
Wind Speed 7 mph (North)    
Max Wind Speed 14 mph    
Max Gust Speed -    
Visibility 10 miles    
Events      
Averages and records for this station are not official NWS values.
T = Trace of Precipitation, MM = Missing Value Source: NWS Daily Summary

Daily Weather History Graph

Daily Weather History Graph

Search for Another Location

Airport:

Trip Planner

Search our weather history database for the weather conditions in past years. The results will help you decide how hot, cold, wet, or windy it might be!

Date:

Astronomy

Sep. 05, 2014 Rise Set
Actual Time 7:48 AM AKDT 9:30 PM AKDT
Civil Twilight 7:05 AM AKDT 10:12 PM AKDT
Nautical Twilight 6:11 AM AKDT 11:06 PM AKDT
Astronomical Twilight 5:07 AM AKDT 12:09 AM AKDT
Moon 7:40 PM AKDT (9/5) 3:15 AM AKDT (9/5)
Length of Visible Light 15h 06m
Length of Day
13h 41m
Waxing Gibbous, 85% of the Moon is Illuminated
Sep 5
Waxing Gibbous
Sep 8
Full
Sep 15
Last Quarter
Sep 23
New
Oct 1
First Quarter

Hourly Weather History & Observations

Time (AKDT) Temp. Dew Point Humidity Pressure Visibility Wind Dir Wind Speed Gust Speed Precip Events Conditions
12:16 AM 53.6 °F 51.8 °F 94% 29.67 in 6.0 mi NNE 3.5 mph - N/A   Overcast
12:36 AM 53.6 °F 51.8 °F 94% 29.68 in 9.0 mi North 8.1 mph - N/A   Overcast
12:56 AM 53.6 °F 51.8 °F 94% 29.68 in 10.0 mi NNE 10.4 mph - N/A   Overcast
1:16 AM 53.6 °F 51.8 °F 94% 29.68 in 10.0 mi North 8.1 mph - 0.01 in   Overcast
1:36 AM 53.6 °F 51.8 °F 94% 29.69 in 10.0 mi North 8.1 mph - 0.01 in   Overcast
1:56 AM 53.6 °F 51.8 °F 94% 29.69 in 10.0 mi North 8.1 mph - 0.01 in   Overcast
2:16 AM 53.6 °F 51.8 °F 94% 29.69 in 10.0 mi North 6.9 mph - N/A   Overcast
2:36 AM 51.8 °F 50.0 °F 94% 29.69 in 6.0 mi NNE 8.1 mph - N/A   Overcast
2:56 AM 51.8 °F 50.0 °F 94% 29.69 in 7.0 mi NNE 8.1 mph - N/A   Overcast
3:16 AM 51.8 °F 50.0 °F 94% 29.70 in 6.0 mi NNE 9.2 mph - N/A   Overcast
3:36 AM 51.8 °F 50.0 °F 94% 29.70 in 10.0 mi NNE 10.4 mph - N/A   Overcast
3:56 AM 51.8 °F 50.0 °F 94% 29.70 in 10.0 mi NNE 8.1 mph - N/A   Overcast
4:16 AM 51.8 °F 50.0 °F 94% 29.70 in 10.0 mi North 8.1 mph - N/A   Overcast
4:36 AM 51.8 °F 50.0 °F 94% 29.71 in 10.0 mi NNE 9.2 mph - N/A   Overcast
4:56 AM 51.8 °F 50.0 °F 94% 29.71 in 10.0 mi North 6.9 mph - N/A   Overcast
5:16 AM 51.8 °F 50.0 °F 94% 29.71 in 10.0 mi North 5.8 mph - N/A   Overcast
5:36 AM 51.8 °F 50.0 °F 94% 29.71 in 10.0 mi NNE 5.8 mph - N/A   Overcast
5:56 AM 51.8 °F 50.0 °F 94% 29.71 in 10.0 mi NNE 5.8 mph - N/A   Overcast
6:16 AM 51.8 °F 50.0 °F 94% 29.71 in 10.0 mi NNE 4.6 mph - N/A   Overcast
6:36 AM 51.8 °F 50.0 °F 94% 29.71 in 10.0 mi NNE 3.5 mph - N/A   Overcast
6:56 AM 51.8 °F 50.0 °F 94% 29.71 in 10.0 mi NNE 4.6 mph - N/A   Overcast
7:16 AM 51.8 °F 50.0 °F 94% 29.72 in 10.0 mi North 3.5 mph - N/A   Overcast
7:36 AM 51.8 °F 50.0 °F 94% 29.72 in 10.0 mi North 4.6 mph - N/A   Overcast
7:56 AM 51.8 °F 50.0 °F 94% 29.72 in 10.0 mi North 3.5 mph - N/A   Overcast
8:16 AM 51.8 °F 50.0 °F 94% 29.72 in 10.0 mi NW 5.8 mph - N/A   Overcast
8:36 AM 51.8 °F 50.0 °F 94% 29.73 in 10.0 mi North 3.5 mph - N/A   Overcast
8:56 AM 51.8 °F 50.0 °F 94% 29.73 in 10.0 mi North 3.5 mph - N/A   Overcast
9:16 AM 51.8 °F 51.8 °F 100% 29.74 in 10.0 mi Calm Calm - N/A   Overcast
9:36 AM 53.6 °F 51.8 °F 94% 29.75 in 10.0 mi Calm Calm - N/A   Overcast
9:56 AM 53.6 °F 51.8 °F 94% 29.75 in 10.0 mi North 3.5 mph - N/A   Mostly Cloudy
10:16 AM 53.6 °F 50.0 °F 88% 29.75 in 10.0 mi Calm Calm - N/A   Mostly Cloudy
10:36 AM 53.6 °F 51.8 °F 94% 29.76 in 10.0 mi Calm Calm - N/A   Overcast
10:56 AM 55.4 °F 51.8 °F 88% 29.76 in 10.0 mi NE 3.5 mph - N/A   Scattered Clouds
11:16 AM 55.4 °F 51.8 °F 88% 29.76 in 10.0 mi East 4.6 mph - N/A   Clear
11:36 AM 57.2 °F 51.8 °F 82% 29.77 in 10.0 mi East 4.6 mph - N/A   Clear
11:56 AM 55.4 °F 51.8 °F 88% 29.78 in 10.0 mi SE 4.6 mph - N/A   Clear
12:16 PM 57.2 °F 53.6 °F 88% 29.78 in 10.0 mi SE 4.6 mph - N/A   Clear
12:36 PM 57.2 °F 53.6 °F 88% 29.79 in 10.0 mi SSE 4.6 mph - N/A   Clear
12:56 PM 60.8 °F 53.6 °F 77% 29.80 in 10.0 mi SSW 4.6 mph - N/A   Clear
1:16 PM 60.8 °F 53.6 °F 77% 29.80 in 10.0 mi South 6.9 mph - N/A   Clear
1:36 PM 60.8 °F 53.6 °F 77% 29.79 in 10.0 mi SSW 5.8 mph - N/A   Clear
1:56 PM 60.8 °F 53.6 °F 77% 29.80 in 10.0 mi SW 9.2 mph - N/A   Clear
2:16 PM 60.8 °F 53.6 °F 77% 29.81 in 10.0 mi SW 11.5 mph - N/A   Scattered Clouds
2:36 PM 59.0 °F 53.6 °F 82% 29.81 in 10.0 mi SW 10.4 mph - N/A   Overcast
2:56 PM 60.8 °F 53.6 °F 77% 29.81 in 10.0 mi SW 9.2 mph - N/A   Overcast
3:16 PM 60.8 °F 55.4 °F 82% 29.82 in 10.0 mi SW 9.2 mph - N/A   Overcast
3:36 PM 60.8 °F 55.4 °F 82% 29.82 in 10.0 mi SSW 9.2 mph - N/A   Overcast
3:56 PM 60.8 °F 55.4 °F 82% 29.82 in 10.0 mi SSW 11.5 mph - N/A   Overcast
4:16 PM 60.8 °F 55.4 °F 82% 29.82 in 10.0 mi SW 11.5 mph - N/A   Scattered Clouds
4:36 PM 60.8 °F 55.4 °F 82% 29.82 in 10.0 mi SW 12.7 mph - N/A   Partly Cloudy
4:56 PM 60.8 °F 55.4 °F 82% 29.82 in 10.0 mi SSW 11.5 mph - N/A   Clear
5:16 PM 60.8 °F 55.4 °F 82% 29.83 in 10.0 mi SSW 13.8 mph - N/A   Clear
5:36 PM 60.8 °F 55.4 °F 82% 29.83 in 10.0 mi SSW 12.7 mph - N/A   Partly Cloudy
5:56 PM 60.8 °F 55.4 °F 82% 29.83 in 10.0 mi SSW 13.8 mph - N/A   Partly Cloudy
6:16 PM 60.8 °F 53.6 °F 77% 29.84 in 10.0 mi SSW 12.7 mph - N/A   Clear
6:36 PM 60.8 °F 55.4 °F 82% 29.84 in 10.0 mi SSW 13.8 mph - N/A   Partly Cloudy
6:56 PM 60.8 °F 55.4 °F 82% 29.84 in 10.0 mi SSW 11.5 mph - N/A   Clear
7:16 PM 60.8 °F 53.6 °F 77% 29.84 in 10.0 mi SSW 13.8 mph - N/A   Clear
7:36 PM 60.8 °F 55.4 °F 82% 29.84 in 10.0 mi SSW 13.8 mph - N/A   Clear
7:56 PM 60.8 °F 55.4 °F 82% 29.85 in 10.0 mi SSW 11.5 mph - N/A   Clear
8:36 PM 59.0 °F 55.4 °F 88% 29.86 in 10.0 mi SSW 10.4 mph - N/A   Clear
8:56 PM 59.0 °F 55.4 °F 88% 29.86 in 10.0 mi SSW 8.1 mph - N/A   Clear
9:16 PM 57.2 °F 55.4 °F 94% 29.87 in 10.0 mi SW 8.1 mph - N/A   Clear
9:36 PM 57.2 °F 55.4 °F 94% 29.87 in 10.0 mi SSW 6.9 mph - N/A   Clear
9:56 PM 57.2 °F 55.4 °F 94% 29.88 in 10.0 mi SSE 5.8 mph - N/A   Clear
10:16 PM 57.2 °F 55.4 °F 94% 29.89 in 10.0 mi SSE 6.9 mph - N/A   Clear
10:36 PM 57.2 °F 55.4 °F 94% 29.90 in 10.0 mi SSE 8.1 mph - N/A   Clear
10:56 PM 57.2 °F 55.4 °F 94% 29.90 in 10.0 mi SE 5.8 mph - N/A   Clear
11:16 PM 57.2 °F 53.6 °F 88% 29.91 in 10.0 mi ESE 4.6 mph - N/A   Clear
11:36 PM 53.6 °F 50.0 °F 88% 29.92 in 2.5 mi North 3.5 mph - N/A   Clear
11:56 PM 48.2 °F 46.4 °F 93% 29.92 in 0.5 mi North 3.5 mph - N/A   Unknown